User: anonymous   Login
Location: Nairn
(57.5833°N, 3.8667°W)
Time: 07:37:08
(UTC+00:00)
Language:

Cosmos 1733 - Orbit

View from above orbital plane
View from above orbital plane
View from above satellite
View from above satellite

Ground track
Ground track

The orbit data is extracted from the following two-line orbital elements,

1 16611U 86018A   20299.91779742 +.00001148 +00000-0 +55537-4 0  9999
2 16611 082.4875 263.2990 0013605 049.2199 311.0212 15.17514668894691
Epoch (UTC): 25 October 2020 22:01:37
Eccentricity: 0.0013605
inclination: 82.4875°
perigee height: 504 km
apogee height: 523 km
right ascension of ascending node: 263.2990°
argument of perigee: 49.2199°
revolutions per day: 15.17514668
mean anomaly at epoch: 311.0212°
orbit number at epoch: 89469

The dashed part of the orbit path shows where the satellite is in the earth's shadow,  

DLR